WEATHER DATA

YESTERDAY
Time Temp. Dewp. Hum. Bar. 1h Prec. 24h Prec.
00:05 4.5 0.6 76 1022.9 0.0000 0.1000
00:15 4.3 0.6 77 1022.7 0.0000 0.1000
00:25 4.3 0.8 78 1022.7 0.0000 0.1000
00:35 4.3 0.8 78 1022.7 0.0000 0.1000
00:45 4.2 0.7 78 1022.7 0.0000 0.1000
00:55 4.1 0.8 79 1022.5 0.0000 0.1000
01:06 4.1 0.8 79 1022.6 0.0000 0.1000
01:15 4.1 0.8 79 1022.4 0.0000 0.1000
01:25 4 0.7 79 1022.4 0.0000 0.1000
01:36 3.9 0.8 80 1022.3 0.0000 0.1000
01:46 3.9 0.8 80 1022.3 0.0000 0.1000
01:56 3.8 0.7 80 1022.2 0.0000
02:06 3.8 0.7 80 1022.2 0.0000 0.0000
02:16 3.8 0.7 80 1022.2 0.0000 0.0000
02:26 3.7 0.6 80 1022.1 0.0000 0.0000
02:36 3.5 0.4 80 1022.3 0.0000 0.0000
02:46 3.5 0.6 81 1022.1 0.0000 0.0000
02:57 3.4 0.5 81 1022 0.0000 0.0000
03:07 3.3 0.4 81 1021.9 0.0000 0.0000
03:16 3.2 0.3 81 1021.9 0.0000 0.0000
03:27 3.1 0.3 82 1021.8 0.0000 0.0000
03:37 3 0.2 82 1021.8 0.0000 0.0000
03:47 2.9 0.1 82 1021.8 0.0000 0.0000
03:57 2.9 0.1 82 1021.6 0.0000 0.0000
04:08 2.8 0 82 1021.7 0.0000 0.0000
04:18 2.8 0.2 83 1021.5 0.0000 0.0000
04:27 2.8 0.2 83 1021.6 0.0000 0.0000
04:38 2.9 0.3 83 1021.5 0.0000 0.0000
04:48 3 0.4 83 1021.5 0.0000 0.0000
04:58 3 0.4 83 1021.4 0.0000 0.0000
05:08 2.9 0.3 83 1021.3 0.0000 0.0000
05:19 2.9 0.3 83 1021.3 0.0000 0.0000
05:28 3 0.4 83 1021.3 0.0000 0.0000
05:38 3 0.4 83 1021.2 0.0000 0.0000
05:48 3 0.4 83 1021 0.0000 0.0000
05:59 3 0.4 83 1020.9 0.0000 0.0000
06:09 3 0.4 83 1021 0.0000 0.0000
06:19 3 0.4 83 1020.9 0.0000 0.0000
06:29 3.1 0.5 83 1020.8 0.0000 0.0000
06:39 3.1 0.5 83 1020.7 0.0000 0.0000
06:49 3.2 0.6 83 1020.5 0.0000 0.0000
06:59 3.2 0.6 83 1020.7 0.0000 0.0000
07:10 3.3 0.7 83 1020.6 0.0000 0.0000
07:20 3.3 0.7 83 1020.4 0.0000 0.0000
07:29 3.4 1 84 1020.6 0.0000 0.0000
07:40 3.5 1.1 84 1020.5 0.0000 0.0000
07:50 3.6 1.2 84 1020.4 0.0000 0.0000
08:00 3.7 1.3 84 1020.5 0.0000 0.0000
08:10 3.9 1.4 84 1020.4 0.0000 0.0000
08:21 4 1.5 84 1020.1 0.0000 0.0000
08:30 4.3 2 85 1020.4 0.0000 0.0000
08:40 4.6 2.1 84 1020.3 0.0000 0.0000
08:50 4.8 2.3 84 1020.3 0.0000 0.0000
09:01 5 2.5 84 1020.5 0.0000 0.0000
09:11 5.3 2.8 84 1020.5 0.0000 0.0000
09:21 5.6 3.1 84 1020.4 0.0000 0.0000
09:31 5.9 3.4 84 1020.2 0.0000 0.0000
09:41 6.3 3.8 84 1020 0.0000 0.0000
09:51 6.7 4 83 1020.2 0.0000 0.0000
10:01 7.3 4.3 81 1020.2 0.0000 0.0000
10:12 7.9 4.3 78 1020 0.0000 0.0000
10:22 8.3 4.3 76 1019.9 0.0000 0.0000
10:32 8.6 4.2 74 1019.9 0.0000 0.0000
10:42 9 4.2 72 1019.8 0.0000 0.0000
10:52 9.3 4.3 71 1019.8 0.0000 0.0000
11:02 9.5 4.1 69 1019.7 0.0000 0.0000
11:12 9.8 4 67 1019.8 0.0000 0.0000
11:22 10 4.2 67 1019.6 0.0000 0.0000
11:33 10.2 4.1 66 1019.5 0.0000 0.0000
11:43 10.4 4.1 65 1019.3 0.0000 0.0000
11:52 10.6 4.3 65 1019 0.0000 0.0000
12:03 10.8 4.3 64 1018.8 0.0000 0.0000
12:13 11 4.2 63 1018.9 0.0000 0.0000
12:23 11.1 4.1 62 1018.8 0.0000 0.0000
12:33 11.2 4.2 62 1018.8 0.0000 0.0000
12:44 11.2 4.2 62 1018.7 0.0000 0.0000
12:54 11.3 4.3 62 1018.2 0.0000 0.0000
13:03 11.4 4.2 61 1018.3 0.0000 0.0000
13:14 11.5 4.2 61 1018.2 0.0000 0.0000
13:24 11.6 4.3 61 1018.2 0.0000 0.0000
13:34 11.7 4.4 61 1018.3 0.0000 0.0000
13:44 11.9 4.6 61 1018.2 0.0000 0.0000
13:54 11.9 4.6 61 1018.2 0.0000 0.0000
14:04 11.9 4.9 62 1018.3 0.0000 0.0000
14:14 11.8 5 63 1018.3 0.0000 0.0000
14:24 11.8 5.2 64 1018.1 0.0000 0.0000
14:35 11.7 5.6 66 1017.8 0.0000 0.0000
14:45 11.7 5.6 66 1017.8 0.0000 0.0000
14:54 11.6 5.7 67 1017.6 0.0000 0.0000
15:05 11.5 6 69 1017.5 0.0000 0.0000
15:15 11.4 6.3 71 1017.4 0.1010 0.1000
15:25 11.4 6.7 73 1017.1 0.1010 0.1000
15:35 11.3 6.8 74 1017.1 0.1010 0.1000
15:46 11.2 6.9 75 1016.9 0.1010 0.1000
15:55 11.2 6.9 75 1016.7 0.1010 0.1000
16:05 11.3 7 75 1016.6 0.1010 0.1000
16:16 11.3 7.2 76 1016.6 0.0000 0.1000
16:26 11.3 7 75 1016.4 0.0000 0.1000
16:36 11.3 7 75 1016.6 0.0000 0.1000
16:46 11.3 7 75 1016.5 0.0000 0.1000
16:57 11.4 7.3 76 1016.4 0.0000 0.1000
17:06 11.4 7.5 77 1016.2 0.0000 0.1000
17:16 11.4 7.7 78 1016.2 0.0000 0.1000
17:26 11.4 7.9 79 1016 0.0000 0.1000
17:37 11.4 8.1 80 1015.9 0.0000 0.1000
17:47 11.3 8.2 81 1015.6 0.0000 0.1000
17:57 11.3 8.2 81 1015.7 0.0000 0.1000
18:07 11.2 8.2 82 1015.6 0.0000 0.1000
18:17 11.2 8.4 83 1015.5 0.0000 0.1000
18:27 11.2 8.4 83 1015.7 0.0000 0.1000
18:37 11.1 8.5 84 1015.5 0.0000 0.1000
18:48 11.1 8.5 84 1015.3 0.0000 0.1000
18:58 11.1 8.5 84 1015.3 0.0000 0.1000
19:08 11.1 8.7 85 1015.3 0.0000 0.1000
19:18 11.1 8.7 85 1015.4 0.0000 0.1000
19:28 11.1 8.7 85 1015.4 0.0000 0.1000
19:38 11.1 8.7 85 1015.3 0.0000 0.1000
19:48 11.1 8.7 85 1015.3 0.0000 0.1000
19:59 11.1 8.7 85 1015.5 0.0000 0.1000
20:09 11.1 8.5 84 1015.5 0.0000 0.1000
20:19 11.1 8.5 84 1015.4 0.0000 0.1000
20:28 11 8.6 85 1015.3 0.0000 0.1000
20:39 11 8.6 85 1015.1 0.0000 0.1000
20:49 11 8.6 85 1015.2 0.0000 0.1000
20:59 10.9 8.5 85 1015.2 0.0000 0.1000
21:09 10.9 8.5 85 1015.1 0.0000 0.1000
21:20 10.9 8.5 85 1015 0.0000 0.1000
21:29 10.9 8.5 85 1014.9 0.0000 0.1000
21:39 10.9 8.5 85 1015 0.0000 0.1000
21:50 10.9 8.5 85 1015 0.0000 0.1000
22:00 11 8.4 84 1014.7 0.0000 0.1000
22:10 11 8.4 84 1014.8 0.0000 0.1000
22:19 11 8.4 84 1014.9 0.0000 0.1000
22:30 10.9 8.3 84 1014.8 0.0000 0.1000
22:40 10.9 8.5 85 1014.7 0.0000 0.1000
22:50 10.9 8.5 85 1014.7 0.0000 0.1000
23:01 10.9 8.5 85 1014.5 0.0000 0.1000
23:11 10.9 8.5 85 1014.2 0.0000 0.1000
23:21 10.9 8.5 85 1014.4 0.0000 0.1000
23:30 10.9 8.5 85 1014.4 0.0000 0.1000
23:41 10.9 8.5 85 1014.5 0.0000 0.1000
23:51 11 8.6 85 1014.4 0.0000 0.1000

DAY STATISTIC

2019-09-20
TEMPERATURE
AVERAGE
7.9
HIGH
11.9
13:44
LOW
2.8
04:08
PRESSURE
AVERAGE
1018.7
HIGH
1022.9
00:05
LOW
1014.2
23:11
DEWPOINT
AVERAGE
4.3
HIGH
8.7
19:08
LOW
0.0
04:08
HUMIDITY
AVERAGE
78
HIGH
85
08:30
LOW
61
13:03
PRECIPITATION
RAIN HOUR
0.1
RAIN DAY
0.1
TEMPERATURE (°C)
LOW
2.8
HIGH
11.9
AVERAGE
7.9
PRESSURE (hpa)
LOW
1014.2
HIGH
1022.9
AVERAGE
1018.7
DEVICE